Regional Weather Roundup
Issued by NWS Goodland, KS

Home | Current Version | Previous Version | Text Only | Print | Product List | Glossary On
Versions: 1 2 3 4 5 6 7 8 9 10 11 12 13 14 15 16 17 18 19 20 21 22 23 24 25 26 27 28 29 30 31 32 33 34 35 36 37 38 39 40 41 42 43 44 45 46 47 48 49 50
000
ASUS43 KGLD 220908
RWRGLD

GOODLAND FORECAST AREA HOURLY WEATHER ROUNDUP
NATIONAL WEATHER SERVICE GOODLAND KS
200 AM MST SAT NOV 22 2014

...OFFICIAL OBSERVATIONS...

CITY           SKY/WX    TMP DP  RH WIND       PRES   REMARKS
GOODLAND KS    CLEAR     36  20  52 SW10      29.92F
HILL CITY KS   PTCLDY    29  28  96 W5        29.92F FOG
IMPERIAL NEB   CLEAR     27  17  66 W10       29.88F WCI  17
MCCOOK NEB     CLEAR     27  24  89 SW9       29.89F
AKRON CO       CLEAR     39  20  46 SW14      29.89F
BURLINGTON CO  CLEAR     32  18  56 SW10      29.93F
LIMON CO       CLEAR     17  13  84 N7        29.95F
$$

...UNOFFICIAL OBSERVATIONS...

CITY           SKY/WX    TMP DP  RH WIND       PRES   REMARKS
COLBY KS       CLEAR     27  23  86 W8        29.92S
GOVE KS          N/A     30  32 100 MISG        N/A
NORTON KS      CLEAR     28  25  86 SW9       29.89S FOG
SHARON SPRINGS   N/A     29  22  74 W9          N/A
TRIBUNE KS     PTCLDY    30  27  86 SW9       29.96F
TRENTON NEB      N/A     29  32 100 W6          N/A
YUMA CO          N/A     30  19  62 SW12        N/A
$$



USA.gov is the U.S. government's official web portal to all federal, state and local government web resources and services.